Showing default

SENTINEL 2B, 42063

Orbit data source: Space-Track

SENTINEL 2B, 42063 is an ESA payload satellite in SSO that was launched on Tue, 07 Mar 2017 UTC via a VEGA launch vehicle from the French Guiana (FRGUI). Payload-class satellites include a variety of spacecraft equipped with specific instruments for various scientific and technological missions. These include communications satellites like Starlink; space stations such as the ISS; scientific satellites like the Hubble; Earth observation satellites from companies like Planet Labs, Umbra, and HawkEye 360; GPS; miniature CubeSats for education and research; and military/defense satellites.

Loading next visibility...
Identifier
42063, 2017-013A
Orbit
SSO
Country
Flag of ESAESA
Related business
Manufacturer
ADS/Bremen
Mission
Operational Civil Imaging
Bus & Motor
SENTINEL-2, AOCS
Mass
1,130 kg wet, 1,063 kg dry
Launch date (UTC)
2017-03-07 (9 years ago)
Launch vehicle
VEGA
Launch site
French Guiana (FRGUI)
Object type
Payload
Rocket body
Debris
Shape & HBR
Box + 1 Pan, 6.0 m
Radar Cross Section
11.901 m², Large (>1 m²)

Expand to show TLE details & history
Last TLE update: 23 hours ago

TLE from 23 hours ago
0 SENTINEL 2B
1 42063U 17013A   26172.47322568  .00000345  00000-0  14824-3 0  9996
2 42063  98.5686 247.1877 0001181  88.2642 271.8676 14.30818862485258
Epoch: 2026-06-21T11:21Z
TLE epoch observation values (Epoch: 2026-06-21T11:21:26.698Z)
Latitude
-0.00006°
Longitude
167.15347°
Altitude
791.901 km
Speed
7.458 km/s
True Right ascension
16h 28m 45s
True Declination
0° 00' 00"
Sunlit
Object was in full shadow at epoch
Visualization orbit readout
Latitude
Unknown
Longitude
Unknown
Altitude
Unknown
Speed
Unknown
Apparent Right ascension
Unknown
Apparent Declination
Unknown
Sunlit
N/A
Visualization observer readout
Local Sidereal Time
21:31:28
Azimuth
Unknown
Elevation
Unknown
Doppler factor
Unknown
Orbital elements
Apogee altitude
786.979 km
Perigee altitude
785.286 km
Semi-major axis
7,164.269 km
Eccentricity
0.00012
Inclination
98.5686°
RAAN
247.1877°
Arg. of periapsis
88.2642°
True anomaly
271.85407°
Mean anomaly
271.8676°
Eccentric anomaly
271.86084°
Mean motion
3.57919 °/min
Orbital period
100.58 mins
BSTAR
0.00014824
Loading maneuver chart data...
Computing Atmospheric mass density...
Loading historical data...
Loading historical data...
Loading historical data...
Loading historical data...
Loading historical data...
Loading historical data...
Loading historical data...
Other satellites on launch #13 in the year 2017 (2017-03-07 UTC)

Documentation

Showing up to 5 results
|